KC1SQ Weather Reports


Display with metric or nautical units.
time (UTC)temp
F
wind
direction
speed
MPH
gust
MPH
rain 1hr
in
rain 24hr
in
rain mn
in
humidity
%
barometer
mb
20260502170237 45 77 0.0 0.0 0.00 0.01 0.01 67 1011.1
20260502164239 45 77 0.0 0.0 0.00 0.01 0.01 67 1011.2
20260502163954 45 77 0.0 0.0 0.00 0.01 0.01 66 1011.2
20260502163239 45 77 0.0 0.0 0.00 0.01 0.01 67 1011.3
20260502162738 45 77 0.0 0.0 0.00 0.01 0.01 66 1011.4
20260502162456 45 77 0.0 0.0 0.00 0.01 0.01 66 1011.5
20260502161726 45 77 0.0 0.0 0.00 0.01 0.01 67 1011.4
20260502161220 45 77 0.0 0.0 0.00 0.01 0.01 67 1011.4
20260502160714 45 77 0.0 0.0 0.00 0.01 0.01 66 1011.5
20260502160208 45 77 0.0 0.0 0.00 0.01 0.01 66 1011.5
20260502152342 45 94 0.0 0.0 0.00 0.01 0.01 66 1011.4
20260502151613 45 65 0.0 0.0 0.00 0.01 0.01 67 1011.5
20260502151333 45 65 0.0 0.0 0.00 0.01 0.01 67 1011.5
20260502150602 44 106 0.0 0.0 0.00 0.01 0.01 67 1011.6
20260502130338 42 53 0.0 2.0 0.00 0.00 0.00 70 1012.4
20260502123808 42 53 0.0 1.0 0.00 0.00 0.00 77 1012.4
20260502123302 42 53 0.0 1.0 0.00 0.00 0.00 77 1012.3
20260502122756 42 196 0.0 0.0 0.00 0.00 0.00 77 1012.2
20260502122250 41 196 0.0 0.0 0.00 0.00 0.00 76 1012.3
20260502121744 41 196 0.0 0.0 0.00 0.00 0.00 75 1012.4
20260502121238 41 196 0.0 0.0 0.00 0.00 0.00 75 1012.4
20260502120732 41 196 0.0 0.0 0.00 0.00 0.00 74 1012.3
20260502120226 41 196 0.0 0.0 0.00 0.00 0.00 74 1012.4
20260502115214 41 196 0.0 0.0 0.00 0.00 0.00 74 1012.5
20260502114933 41 196 0.0 0.0 0.00 0.00 0.00 74 1012.5
20260502114202 41 196 0.0 2.0 0.00 0.00 0.00 74 1012.5
20260502113656 40 196 1.0 2.0 0.00 0.00 0.00 74 1012.6
20260502113150 40 196 1.0 2.0 0.00 0.00 0.00 74 1012.6
20260502112644 40 196 0.0 1.0 0.00 0.00 0.00 74 1012.7
20260502112138 40 196 0.0 1.0 0.00 0.00 0.00 73 1012.6
20260502111633 40 196 0.0 1.0 0.00 0.00 0.00 70 1012.6
20260502111211 40 196 0.0 0.0 0.00 0.00 0.00 69 1012.8
20260502110114 40 196 0.0 2.0 0.00 0.00 0.00 69 1012.6
20260502105608 40 196 0.0 2.0 0.00 0.00 0.00 69 1012.6
20260502105102 40 196 0.0 2.0 0.00 0.00 0.00 69 1012.5
20260502104556 39 196 0.0 1.0 0.00 0.00 0.00 68 1012.5
20260502104314 39 196 0.0 1.0 0.00 0.00 0.00 68 1012.4
20260502103544 39 196 0.0 0.0 0.00 0.00 0.00 68 1012.5
20260502103038 39 196 0.0 0.0 0.00 0.00 0.00 67 1012.6
20260502102532 39 196 0.0 0.0 0.00 0.00 0.00 67 1012.4
20260502102026 39 196 0.0 0.0 0.00 0.00 0.00 67 1012.3
20260502101526 38 196 0.0 0.0 0.00 0.00 0.00 67 1012.0
20260502101026 38 196 0.0 2.0 0.00 0.00 0.00 67 1011.8
20260502100525 38 196 0.0 2.0 0.00 0.00 0.00 67 1011.7
20260502091513 37 196 0.0 0.0 0.00 0.00 0.00 64 1011.4
20260502091012 37 196 0.0 0.0 0.00 0.00 0.00 64 1011.5
20260502090509 38 196 0.0 0.0 0.00 0.00 0.00 64 1011.6
20260502071504 37 265 0.0 0.0 0.00 0.00 0.00 65 1012.1
20260502071002 37 265 0.0 0.0 0.00 0.00 0.00 65 1012.1
20260502070728 37 265 0.0 0.0 0.00 0.00 0.00 65 1011.9
20260502070002 37 265 0.0 0.0 0.00 0.00 0.00 65 1011.9
20260502065503 37 265 0.0 0.0 0.00 0.00 0.00 66 1011.7
20260502065004 36 265 0.0 0.0 0.00 0.00 0.00 67 1011.8
20260502064504 36 265 0.0 0.0 0.00 0.00 0.00 67 1011.6
20260502064004 36 265 0.0 0.0 0.00 0.00 0.00 67 1011.6
20260502063505 36 265 0.0 0.0 0.00 0.00 0.00 68 1011.6
20260502063003 36 265 0.0 0.0 0.00 0.00 0.00 68 1011.6
20260502062500 36 265 0.0 0.0 0.00 0.00 0.00 69 1011.5
20260502062002 35 265 0.0 0.0 0.00 0.00 0.00 69 1011.5
20260502061501 35 265 0.0 0.0 0.00 0.00 0.00 69 1011.6
20260502060954 35 265 0.0 0.0 0.00 0.00 0.00 69 1011.4
20260502060447 35 265 0.0 0.0 0.00 0.00 0.00 69 1011.5
20260502055941 35 265 0.0 0.0 0.00 0.00 0.00 69 1011.5
20260502055655 35 265 0.0 0.0 0.00 0.00 0.00 69 1011.5
20260502054928 34 265 0.0 0.0 0.00 0.00 0.00 69 1011.4
20260502054423 34 265 0.0 0.0 0.00 0.00 0.00 69 1011.4
20260502054135 34 265 0.0 0.0 0.00 0.00 0.00 68 1011.5
20260502053902 34 265 0.0 0.0 0.00 0.00 0.00 68 1011.4
20260502052906 34 265 0.0 0.0 0.00 0.00 0.00 67 1011.4
20260502052359 34 265 0.0 0.0 0.00 0.00 0.00 67 1011.5
20260502051853 34 265 0.0 0.0 0.00 0.00 0.00 66 1011.4
20260502051605 34 265 0.0 0.0 0.00 0.00 0.00 66 1011.3
20260502051059 34 265 0.0 0.0 0.00 0.00 0.00 66 1011.2
20260502050334 35 265 0.0 0.0 0.00 0.00 0.00 66 1011.3
20260502050050 35 265 0.0 0.0 0.00 0.00 0.00 67 1011.3
20260502045323 35 265 0.0 0.0 0.00 0.00 0.00 67 1011.3
20260502044817 35 265 0.0 0.0 0.00 0.00 0.00 66 1011.4
20260502044311 35 265 0.0 0.0 0.00 0.00 0.00 66 1011.3
20260502043804 35 265 0.0 0.0 0.00 0.00 0.00 66 1011.2
20260502043259 35 265 0.0 0.0 0.00 0.00 0.00 66 1011.4
20260502042753 35 265 0.0 0.0 0.00 0.00 0.00 66 1011.3
20260502042247 35 265 0.0 0.0 0.00 0.00 0.00 66 1011.3
20260502041741 35 265 0.0 0.0 0.00 0.00 0.00 66 1011.3
20260502041234 35 265 0.0 0.0 0.00 0.00 0.00 66 1011.3
20260502040729 36 265 0.0 0.0 0.00 0.00 0.00 66 1011.3
20260502040222 36 265 0.0 0.0 0.00 0.00 0.00 66 1011.2
20260502035717 36 265 0.0 0.0 0.00 0.00 0.00 66 1011.2
20260502035211 36 265 0.0 0.0 0.00 0.00 0.00 66 1011.3
20260502034704 36 265 0.0 0.0 0.00 0.00 0.00 66 1011.2
20260502034159 37 265 0.0 0.0 0.00 0.00 0.00 66 1011.2
20260502033653 37 265 0.0 0.0 0.00 0.00 0.00 66 1011.1
20260502033147 37 265 0.0 0.0 0.00 0.00 0.00 66 1011.1
20260502032641 37 265 0.0 0.0 0.00 0.00 0.00 65 1011.1
20260502032134 37 265 0.0 0.0 0.00 0.00 0.00 64 1011.1
20260502031629 37 265 0.0 0.0 0.00 0.00 0.00 64 1011.0
20260502031123 38 265 0.0 0.0 0.00 0.00 0.00 64 1011.0
20260502030617 38 265 0.0 0.0 0.00 0.00 0.00 63 1011.0
20260502030111 38 265 0.0 0.0 0.00 0.00 0.00 62 1011.0
20260502025605 38 265 0.0 0.0 0.00 0.00 0.00 62 1010.9
20260502025059 38 265 0.0 0.0 0.00 0.00 0.00 63 1011.0
20260502024553 39 265 0.0 0.0 0.00 0.00 0.00 63 1011.0
20260502024047 39 265 0.0 0.0 0.00 0.00 0.00 62 1011.0
20260502023542 39 265 0.0 0.0 0.00 0.00 0.00 62 1011.1
20260502023257 39 265 0.0 0.0 0.00 0.00 0.00 62 1011.1
20260502022529 39 265 0.0 0.0 0.00 0.00 0.00 60 1011.0
20260502022023 39 265 0.0 0.0 0.00 0.00 0.00 58 1011.0
20260502021517 39 265 0.0 0.0 0.00 0.00 0.00 55 1011.0
20260502021011 40 265 0.0 0.0 0.00 0.00 0.00 53 1011.0
20260502020505 40 265 0.0 0.0 0.00 0.00 0.00 51 1010.9
20260502020228 40 265 0.0 0.0 0.00 0.00 0.00 55 1010.9
20260502015942 41 265 0.0 0.0 0.00 0.00 0.00 55 1011.0
20260502014947 41 265 0.0 0.0 0.00 0.00 0.00 57 1011.0
20260502014441 42 265 0.0 0.0 0.00 0.00 0.00 56 1010.9
20260502013935 42 265 0.0 0.0 0.00 0.00 0.00 55 1010.9
20260502013646 42 265 0.0 0.0 0.00 0.00 0.00 52 1010.9
20260502012922 42 265 0.0 0.0 0.00 0.00 0.00 52 1010.8
20260502012417 43 265 0.0 0.0 0.00 0.00 0.00 52 1010.8
20260502012133 43 265 0.0 0.0 0.00 0.00 0.00 49 1010.8
20260502011405 43 265 0.0 0.0 0.00 0.00 0.00 50 1010.7
20260502011118 44 265 0.0 0.0 0.00 0.00 0.00 49 1010.7
20260502010354 44 265 0.0 0.0 0.00 0.00 0.00 49 1010.6
20260502005847 44 265 0.0 0.0 0.00 0.00 0.00 47 1010.6
20260502005600 45 265 0.0 0.0 0.00 0.00 0.00 50 1010.6
20260502004836 46 265 0.0 0.0 0.00 0.00 0.00 47 1010.5
20260502004329 46 265 0.0 0.0 0.00 0.00 0.00 47 1010.4
20260502003823 47 265 0.0 0.0 0.00 0.00 0.00 45 1010.4
20260502003318 47 265 0.0 0.0 0.00 0.00 0.00 43 1010.3
20260502002811 48 265 0.0 0.0 0.00 0.00 0.00 40 1010.3
20260502002525 49 265 0.0 0.0 0.00 0.00 0.00 40 1010.2
20260502001759 49 265 0.0 0.0 0.00 0.00 0.00 38 1010.2
20260502001254 50 265 0.0 0.0 0.00 0.00 0.00 37 1010.0
20260502000747 50 265 0.0 0.0 0.00 0.00 0.00 36 1009.8
20260502000506 51 265 0.0 0.0 0.00 0.00 0.00 34 1009.7
20260501235735 51 265 0.0 0.0 0.00 0.00 0.00 33 1009.7
20260501235716 52 265 0.0 0.0 0.00 0.00 0.00 31 1009.6
20260501234723 52 265 0.0 0.0 0.00 0.00 0.00 29 1009.6
20260501234217 53 265 0.0 0.0 0.00 0.00 0.00 28 1009.5
20260501233711 53 265 0.0 0.0 0.00 0.00 0.00 26 1009.3
20260501233206 53 265 0.0 0.0 0.00 0.00 0.00 26 1009.2
20260501232922 53 265 0.0 0.0 0.00 0.00 0.00 25 1009.2
20260501232153 54 265 0.0 0.0 0.00 0.00 0.00 25 1009.2
20260501232130 54 271 0.0 0.0 0.00 0.00 0.00 28 1009.1
20260501231141 55 272 0.0 1.0 0.00 0.00 0.00 25 1009.1
20260501230634 55 272 0.0 2.0 0.00 0.00 0.00 24 1009.0
20260501230129 55 272 0.0 2.0 0.00 0.00 0.00 24 1008.9
20260501225626 56 272 0.0 2.0 0.00 0.00 0.00 24 1008.6
20260501225125 56 273 0.0 3.0 0.00 0.00 0.00 24 1008.6
20260501224625 56 273 1.0 3.0 0.00 0.00 0.00 23 1008.6
20260501224127 56 318 1.0 4.0 0.00 0.00 0.00 21 1008.5
20260501223626 57 254 1.0 4.0 0.00 0.00 0.00 21 1008.4
20260501223126 57 273 1.0 5.0 0.00 0.00 0.00 20 1008.5
20260501222626 57 308 1.0 9.0 0.00 0.00 0.00 21 1008.4
20260501222613 58 277 0.0 9.0 0.00 0.00 0.00 19 1008.4
20260501221624 58 260 0.0 0.0 0.00 0.00 0.00 21 1008.3
20260501221123 59 258 0.0 0.0 0.00 0.01 0.00 19 1008.2
20260501220622 59 355 0.0 0.0 0.00 0.01 0.00 19 1008.2
20260501220122 60 276 1.0 5.0 0.00 0.01 0.00 21 1008.1
20260501215622 60 268 1.0 5.0 0.00 0.01 0.00 21 1008.0
20260501215120 60 322 1.0 5.0 0.00 0.01 0.00 18 1007.9
20260501214618 61 259 1.0 5.0 0.00 0.01 0.00 18 1007.9
20260501214116 61 333 2.0 11.0 0.00 0.01 0.00 20 1007.8
20260501213616 61 5 1.0 11.0 0.00 0.01 0.00 19 1007.8
20260501213117 62 313 2.0 7.0 0.00 0.01 0.00 19 1007.7
20260501212612 62 292 2.0 7.0 0.00 0.01 0.00 16 1007.7
20260501212158 62 293 2.0 6.0 0.00 0.01 0.00 19 1007.6
20260501211053 63 287 2.0 6.0 0.00 0.01 0.00 17 1007.6
20260501210553 64 355 2.0 5.0 0.00 0.01 0.00 17 1007.4
20260501210050 64 339 1.0 4.0 0.00 0.01 0.00 18 1007.4
20260501205815 64 294 1.0 5.0 0.00 0.01 0.00 17 1007.2
20260501205049 63 271 2.0 6.0 0.00 0.01 0.00 18 1007.3
20260501204549 63 310 2.0 6.0 0.00 0.01 0.00 18 1007.3
20260501204047 63 55 2.0 4.0 0.00 0.01 0.00 21 1007.2
20260501203547 63 55 2.0 7.0 0.00 0.01 0.00 18 1007.1
20260501203047 63 263 2.0 7.0 0.00 0.01 0.00 17 1007.0
20260501202545 63 290 2.0 6.0 0.00 0.01 0.00 17 1007.0
20260501202045 64 272 2.0 6.0 0.00 0.01 0.00 17 1007.1
20260501201547 64 316 2.0 4.0 0.00 0.01 0.00 20 1007.1
20260501201046 64 250 2.0 4.0 0.00 0.01 0.00 22 1006.9
20260501200545 63 164 2.0 7.0 0.00 0.01 0.00 23 1006.9
20260501200044 63 250 3.0 8.0 0.00 0.01 0.00 21 1006.8
20260501195543 63 287 2.0 8.0 0.00 0.02 0.00 21 1006.9
20260501195305 64 280 2.0 6.0 0.00 0.02 0.00 19 1006.9
20260501194542 64 288 1.0 6.0 0.00 0.02 0.00 20 1006.8
20260501194041 65 344 1.0 6.0 0.00 0.03 0.00 21 1006.8
20260501193542 64 324 1.0 6.0 0.00 0.03 0.00 23 1006.7
20260501193043 64 335 0.0 0.0 0.00 0.04 0.00 24 1006.7
20260501192539 64 253 0.0 0.0 0.00 0.04 0.00 25 1006.7
20260501192040 64 245 0.0 0.0 0.00 0.04 0.00 27 1006.7
20260501192021 63 42 0.0 0.0 0.00 0.04 0.00 27 1006.8
20260501191259 62 254 0.0 0.0 0.00 0.04 0.00 27 1006.9
20260501190541 62 284 0.0 3.0 0.00 0.04 0.00 28 1006.8
20260501190041 62 338 1.0 5.0 0.00 0.04 0.00 31 1006.7
20260501185541 61 36 1.0 5.0 0.00 0.04 0.00 33 1006.8
20260501185041 61 62 1.0 4.0 0.00 0.04 0.00 33 1006.7
20260501184539 60 340 0.0 3.0 0.00 0.05 0.00 35 1006.8
20260501184259 59 24 0.0 1.0 0.00 0.05 0.00 38 1006.8
20260501183541 59 334 1.0 4.0 0.00 0.06 0.00 37 1006.8
20260501183039 59 56 1.0 4.0 0.00 0.06 0.00 35 1006.8
20260501182541 59 236 1.0 3.0 0.00 0.06 0.00 35 1006.8
20260501182040 59 65 0.0 2.0 0.00 0.06 0.00 34 1006.8
20260501181539 59 5 0.0 2.0 0.00 0.06 0.00 37 1006.8
20260501181041 58 125 0.0 4.0 0.00 0.07 0.00 40 1006.8
20260501180539 58 56 1.0 4.0 0.00 0.07 0.00 39 1006.8
20260501180040 58 67 1.0 3.0 0.00 0.07 0.00 39 1007.0
20260501175541 59 49 0.0 3.0 0.00 0.08 0.00 37 1006.9
20260501175257 58 50 1.0 3.0 0.00 0.09 0.00 39 1006.9
20260501174535 58 96 1.0 3.0 0.00 0.10 0.00 41 1006.9
20260501174037 57 218 0.0 3.0 0.00 0.10 0.00 39 1006.9
20260501173536 56 264 0.0 3.0 0.00 0.11 0.00 39 1006.9
20260501173302 56 238 1.0 5.0 0.00 0.11 0.00 41 1006.9
20260501172531 56 19 1.0 5.0 0.00 0.12 0.00 41 1006.9
20260501172030 56 56 0.0 4.0 0.00 0.12 0.00 41 1007.0
20260501171531 56 48 0.0 4.0 0.00 0.12 0.00 42 1006.9